Regional Weather Roundup
Issued by NWS Newport/Morehead, NC

Current Version | Previous Version | Text Only | Print | Product List | Glossary On
Versions: 1 2 3 4 5 6 7 8 9 10 11 12 13 14 15 16 17 18 19 20 21 22 23 24 25 26 27 28 29 30 31 32 33 34 35 36 37 38 39 40 41 42 43 44 45 46 47
000
ASUS42 KMHX 192214
RWRMHX
WEATHER ROUNDUP FOR EASTERN NORTH CAROLINA
NATIONAL WEATHER SERVICE NEWPORT/MOREHEAD CITY NC
600 PM EDT SAT AUG 19 2017

NOTE: "FAIR" INDICATES FEW OR NO CLOUDS BELOW 12,000 FEET
WITH NO SIGNIFICANT WEATHER AND/OR OBSTRUCTIONS TO VISIBILITY

NCZ015>017-031-032-045>047-102-103-192300-
NORTH COAST

CITY           SKY/WX    TMP DP  RH WIND       PRES   REMARKS
EDENTON        CLOUDY    88  75  65 CALM      29.93R
ELIZABETH CITY CLOUDY    80  76  87 E5        29.92S
KITTY HAWK     CLOUDY    82  75  78 CALM      29.91S
MANTEO         CLOUDY    83  75  77 SW15      29.93S

$$

NCZ045>047-081-094-103-104-192300-
CENTRAL COAST

CITY           SKY/WX    TMP DP  RH WIND       PRES   REMARKS
FRISCO         LGT RAIN  77  75  93 SW16G30   29.95R

$$

NCZ095-097-098-100-101-192300-
SOUTHERN COAST

CITY           SKY/WX    TMP DP  RH WIND       PRES   REMARKS
BEAUFORT       CLOUDY    79  76  90 CALM      29.95F
CEDAR ISLAND   NOT AVBL
JACKSONVILLE   TSTM      76  76 100 S5        29.95R
PINEY ISLAND   MOCLDY   N/A N/A N/A SE5       29.95S
WILMINGTON     CLOUDY    76  74  93 SE6       29.96S


$$

NCZ011>013-027>030-043-044-078>080-089-090>093-098-192300-
COASTAL PLAIN

CITY           SKY/WX    TMP DP  RH WIND       PRES   REMARKS
AHOSKIE          N/A     84  78  82 CALM      29.92S
CLINTON        CLOUDY    82  77  82 SE3       29.94S
ELIZABETHTOWN  NOT AVBL
GOLDSBORO      MOSUNNY   87  78  75 S9        29.92S HX 100
GREENVILLE     CLOUDY    84  73  70 CALM      29.94F
HAVELOCK       CLOUDY    77  75  93 SE6       29.96F
KENANSVILLE    CLOUDY    77  73  88 S3        29.94S
KINSTON        NOT AVBL
NEW BERN       CLOUDY    76  75  97 CALM      29.96S
RICHLANDS      CLOUDY    75  74  96 S5        29.95S
ROCKY MOUNT    CLOUDY    90  68  48 SW5       29.93S
WASHINGTON     CLOUDY    77  73  87 S6        29.94S
WHITEVILLE     HVY RAIN  76  74  94 E7        29.95R VSB 1/2

$$

AMZ130-135-150-152-154-156-158-170-250-252-270-ANZ085-086-088-633-658-670-192300-
MARINE OBSERVATIONS

STATION/POSITION TIME  TEMP    WIND        PRES    WAVE   SWELL
                       AIR SEA DIR/SP/G            HT/PER HT/PER
                 (UTC) (F)     (DEG/KT/KT) (MB)    (FT/S) (FT/S)
CHESAPEAKE LIGHT NOT AVBL
64 E VA BEACH    2150   79 80  280/  2/  4 1013.7    3/ 6   3/ 6
DUCK             2136   82 76   60/  5/  6 1013.0
2 E DUCK         2130      82                N/A     2/ 9
OREGON INLET     2136   82 86  210/ 16/ 18 1013.5
13E OREGON INLT  2148      81                N/A     3/ 6   2/13
HATTERAS CG      2136   76 84  230/ 16/ 22 1014.4
DIAMOND BUOY     2150   79 84  280/ 19/ 25 1013.7    3/ 7   2/ 7
CAPE LOOKOUT     2200   81     310/  4/  5 1014.1
BEAUFORT LAB     2136   78 82  360/  5/  7 1013.8
30 SE NEW RVR IN 2108   81 84  300/  8/ 12 1014.3
30 SE NEW RVR IN 2143      84                N/A     4/ 5
27 SE WRIGHTSVLE 2108   84 84  210/ 12/ 17 1013.8
5 SE WRIGHTSVLE  2108   77 84  280/ 21/ 35 1014.8
225 S CAPE HAT   2150   84 85  190/ 12/ 14 1015.8    4/ 9   3/ 9
41 SE CHARLESTON 2200   84 85  210/ 12/ 14 1013.5

$$




USA.gov is the U.S. government's official web portal to all federal, state and local government web resources and services.